(212314) = 1999 RH254 = 2005 QU42

Discovered at Anderson Mesa on 2005-08-26 by LONEOS.

Orbit

Orbit type: Main Belt

Note: WebGL enabled browser required.

epoch2024-03-31.0
epoch JD2460400.5
perihelion date2022-11-12.67461
perihelion JD2459896.17461
argument of perihelion (°)314.74035
ascending node (°)18.33729
inclination (°)5.20713
eccentricity0.1506308
perihelion distance (AU)2.7360067
Tisserand w.r.t. Jupiter3.2
ΔV w.r.t. Earth (km/sec)10.4
semimajor axis (AU)3.2212218
mean anomaly (°)85.97729
mean daily motion (°/day)0.17047980
aphelion distance (AU)3.706
period (years)5.78
P-vector [x]0.89069870
P-vector [y]-0.38722451
P-vector [z]-0.23814494
Q-vector [x]0.45369656
Q-vector [y]0.79010515
Q-vector [z]0.41218113
absolute magnitude15.08
phase slope0.15
uncertainty0
referenceMPEC 2024-C163
observations used676
oppositions17
arc length (days)8885
first opposition used1999
last opposition used2024
residual rms (arc-secs)0.67
perturbers coarse indicatorM-v
perturbers precise indicator003Ek
first observation date used1999-09-07.0
last observation date used2024-01-04.0
computer nameMPCLINUX
JD of orbit computation2456819.389251
perihelion JD uncertainty (days)1.9507E-04
argument of perihelion uncertainty (°)7.2837E-05
ascending node uncertainty (°)6.8285E-05
inclination uncertainty (°)1.0643E-05
eccentricity uncertainty 1.4785E-07
perihelion distance uncertainty (AU)4.5679E-07
Minimum Orbit Intersection Distances (in AU)
for orbit epoch: 2460200.5, reference: E2024-CG3
Mercury2.33534
Venus2.0131
Earth1.73366
Mars1.36085
Jupiter1.67365
Saturn5.52294
Uranus14.7488
Neptune26.6658

Observations

687 total observations over interval: 1999 09 07.28442 – 2024 01 04.363344
These data are available for download (format description).

Date (UT) J2000 RA J2000 Dec Magn Location Ref
1999 09 07.28442 22 07 28.01 -17 43 55.4 19.0   704 – Lincoln Laboratory ETS, New Mexico MPS 17617
1999 09 07.30921 22 07 26.88 -17 43 56.8 19.5   704 – Lincoln Laboratory ETS, New Mexico MPS 17617
1999 09 07.32128 22 07 26.35 -17 43 58.5 19.1   704 – Lincoln Laboratory ETS, New Mexico MPS 17617
1999 09 08.22626 22 06 47.64 -17 45 25.2 18.5 R 703 – Catalina Sky Survey MPS 17617
1999 09 08.23607 22 06 47.27 -17 45 28.4 18.7 R 703 – Catalina Sky Survey MPS 17617
1999 09 08.24601 22 06 46.95 -17 45 30.9 18.4 R 703 – Catalina Sky Survey MPS 17617
1999 09 08.25710 22 06 46.29 -17 45 30.2 19.5 R 703 – Catalina Sky Survey MPS 17617
2000 11 20.32821 04 08 30.38 +26 18 36.5 19.8   704 – Lincoln Laboratory ETS, New Mexico MPS 163853
2000 11 20.34322 04 08 29.58 +26 18 34.9 19.5   704 – Lincoln Laboratory ETS, New Mexico MPS 163853
2000 11 20.35825 04 08 28.72 +26 18 35.5 19.5   704 – Lincoln Laboratory ETS, New Mexico MPS 163853
2003 03 24.28731 12 19 27.51 -00 06 09.7 19.9 V 691 – Steward Observatory, Kitt Peak-Spacewatch MPS 163853
2003 03 24.31466 12 19 26.27 -00 06 03.5 19.9 V 691 – Steward Observatory, Kitt Peak-Spacewatch MPS 163853
2003 03 24.34243 12 19 25.01 -00 05 57.2 19.9 V 691 – Steward Observatory, Kitt Peak-Spacewatch MPS 163853
2005 08 26.36958 23 42 36.09 -06 36 16.9 18.8 R 699 – Lowell Observatory-LONEOS MPS 140293
2005 08 26.38740 23 42 35.46 -06 36 19.8 18.5   644 – Palomar Mountain/NEAT MPS 141150
2005 08 26.38797 23 42 35.52 -06 36 19.8   699 – Lowell Observatory-LONEOS MPS 140293
2005 08 26.40634 23 42 34.69 -06 36 23.4   699 – Lowell Observatory-LONEOS MPS 140293
2005 08 26.40900 23 42 34.60 -06 36 23.7 18.6   644 – Palomar Mountain/NEAT MPS 141150
2005 08 26.42475 23 42 33.79 -06 36 25.8   699 – Lowell Observatory-LONEOS MPS 140293
2005 08 26.43722 23 42 33.41 -06 36 28.1 18.8 R 699 – Lowell Observatory-LONEOS MPS 140293
2005 08 26.43787 23 42 33.45 -06 36 29.1 18.5   644 – Palomar Mountain/NEAT MPS 141150
2005 08 26.44833 23 42 32.97 -06 36 30.8   699 – Lowell Observatory-LONEOS MPS 140293
2005 08 26.45943 23 42 32.50 -06 36 32.6   699 – Lowell Observatory-LONEOS MPS 140293
2005 08 26.47054 23 42 32.06 -06 36 34.8   699 – Lowell Observatory-LONEOS MPS 140293
2005 08 29.24772 23 40 43.23 -06 45 09.1 19.1   704 – Lincoln Laboratory ETS, New Mexico MPS 140293
2005 08 29.25880 23 40 42.68 -06 45 11.0 19.7   704 – Lincoln Laboratory ETS, New Mexico MPS 140293
2005 08 29.27006 23 40 42.26 -06 45 11.9 19.5   704 – Lincoln Laboratory ETS, New Mexico MPS 140293
2005 08 29.29233 23 40 41.28 -06 45 16.9 19.4   704 – Lincoln Laboratory ETS, New Mexico MPS 140293
2005 09 01.31663 23 38 35.33 -06 54 55.7 19.2 V 691 – Steward Observatory, Kitt Peak-Spacewatch MPS 140293
2005 09 01.33395 23 38 34.57 -06 54 58.9 19.3 V 691 – Steward Observatory, Kitt Peak-Spacewatch MPS 140293
2005 09 01.35128 23 38 33.80 -06 55 02.3 19.3 V 691 – Steward Observatory, Kitt Peak-Spacewatch MPS 140293
2005 09 11.29436 23 31 05.35 -07 27 13.1 19.1 V 691 – Steward Observatory, Kitt Peak-Spacewatch MPS 141744
2005 09 11.31171 23 31 04.51 -07 27 16.4 19.1 V 691 – Steward Observatory, Kitt Peak-Spacewatch MPS 141744
2005 09 11.32952 23 31 03.65 -07 27 19.8 19.1 V 691 – Steward Observatory, Kitt Peak-Spacewatch MPS 141744
2005 09 22.25836 23 22 39.63 -07 58 41.0 18.8 R 644 – Palomar Mountain/NEAT MPS 144033
2005 09 22.28202 23 22 38.54 -07 58 44.3 18.9 R 644 – Palomar Mountain/NEAT MPS 144033
2005 09 22.30584 23 22 37.44 -07 58 48.4 18.6 R 644 – Palomar Mountain/NEAT MPS 144033
2005 09 23.23456 23 21 56.26 -08 01 05.8 18.3 V 703 – Catalina Sky Survey MPS 142240
2005 09 23.24100 23 21 55.98 -08 01 06.4 18.4 V 703 – Catalina Sky Survey MPS 142240
2005 09 23.24744 23 21 55.69 -08 01 08.6 18.5 V 703 – Catalina Sky Survey MPS 142240
2005 09 23.25390 23 21 55.44 -08 01 08.1 18.7 V 703 – Catalina Sky Survey MPS 142240
2005 09 28.21259 23 18 23.82 -08 11 56.3 18.9   704 – Lincoln Laboratory ETS, New Mexico MPS 142703
2005 09 28.22306 23 18 23.34 -08 11 58.6 19.4   704 – Lincoln Laboratory ETS, New Mexico MPS 142703
2005 09 28.23356 23 18 22.95 -08 11 59.3 19.1   704 – Lincoln Laboratory ETS, New Mexico MPS 142703
2005 09 28.24428 23 18 22.48 -08 12 01.1 19.2   704 – Lincoln Laboratory ETS, New Mexico MPS 142703
2005 10 01.20431 23 16 24.80 -08 17 17.1 18.7   704 – Lincoln Laboratory ETS, New Mexico MPS 144033
2005 10 01.21482 23 16 24.33 -08 17 18.3 19.4   704 – Lincoln Laboratory ETS, New Mexico MPS 144033
2005 10 01.22535 23 16 23.92 -08 17 18.8 19.6   704 – Lincoln Laboratory ETS, New Mexico MPS 144033
2005 10 01.23588 23 16 23.49 -08 17 19.9 19.2   704 – Lincoln Laboratory ETS, New Mexico MPS 144033
2005 10 01.24642 23 16 23.16 -08 17 21.1 19.7   704 – Lincoln Laboratory ETS, New Mexico MPS 144033
2005 10 05.15207 23 13 59.98 -08 22 43.4 19.1   704 – Lincoln Laboratory ETS, New Mexico MPS 144033
2005 10 05.17370 23 13 59.15 -08 22 44.2 19.7   704 – Lincoln Laboratory ETS, New Mexico MPS 144033
2005 10 05.18454 23 13 58.78 -08 22 44.7 19.9   704 – Lincoln Laboratory ETS, New Mexico MPS 144033
2005 10 05.19539 23 13 58.42 -08 22 45.4 19.9   704 – Lincoln Laboratory ETS, New Mexico MPS 144033
2005 10 07.19877 23 12 51.15 -08 24 47.7 18.9 R 699 – Lowell Observatory-LONEOS MPS 144033
2005 10 07.23717 23 12 49.78 -08 24 50.1   699 – Lowell Observatory-LONEOS MPS 144033
2005 10 07.26146 23 12 48.99 -08 24 51.0   699 – Lowell Observatory-LONEOS MPS 144034
2005 10 07.28464 23 12 48.19 -08 24 52.6   699 – Lowell Observatory-LONEOS MPS 144034
2005 10 22.16709 23 07 02.24 -08 23 13.8 20.1 V 703 – Catalina Sky Survey MPS 286823
2005 10 22.17613 23 07 02.17 -08 23 12.6 19.6 V 703 – Catalina Sky Survey MPS 286823
2005 10 22.18516 23 07 02.02 -08 23 11.2 19.8 V 703 – Catalina Sky Survey MPS 286823
2005 10 22.19419 23 07 01.81 -08 23 07.7 19.8 V 703 – Catalina Sky Survey MPS 286823
2005 11 29.08718 23 14 36.49 -06 11 20.5 20.5 V G96 – Mt. Lemmon Survey MPS 152097
2005 11 29.09391 23 14 36.74 -06 11 18.7 20.6 V G96 – Mt. Lemmon Survey MPS 152097
2005 11 29.10049 23 14 36.96 -06 11 16.1 20.3 V G96 – Mt. Lemmon Survey MPS 152097
2005 11 29.10718 23 14 37.21 -06 11 14.3 20.4 V G96 – Mt. Lemmon Survey MPS 152097
2006 01 28.09250 00 13 04.04 +01 30 48.2 20.9 V G96 – Mt. Lemmon Survey MPS 161826
2006 01 28.09686 00 13 04.33 +01 30 50.4 20.7 V G96 – Mt. Lemmon Survey MPS 161826
2006 01 28.10124 00 13 04.69 +01 30 52.0 21.3 V G96 – Mt. Lemmon Survey MPS 161826
2006 01 28.10561 00 13 05.05 +01 30 55.1 20.4 V G96 – Mt. Lemmon Survey MPS 161826
2008 01 13.43040 09 56 57.84 +18 58 30.0   691 – Steward Observatory, Kitt Peak-Spacewatch MPS 234271
2008 01 13.45149 09 56 57.13 +18 58 34.7   691 – Steward Observatory, Kitt Peak-Spacewatch MPS 234271
2008 01 13.46913 09 56 56.54 +18 58 38.0   691 – Steward Observatory, Kitt Peak-Spacewatch MPS 234271
2008 02 11.26733 09 36 47.05 +20 41 11.6 20.3 V G96 – Mt. Lemmon Survey MPS 237559
2008 02 11.27120 09 36 46.87 +20 41 12.4 20.3 V G96 – Mt. Lemmon Survey MPS 237559
2008 02 11.27508 09 36 46.65 +20 41 13.0 20.0 V G96 – Mt. Lemmon Survey MPS 237559
2008 02 11.27898 09 36 46.51 +20 41 13.8 20.2 V G96 – Mt. Lemmon Survey MPS 237559
2009 01 20.50202 13 19 59.55 -07 00 39.0 21.0 V G96 – Mt. Lemmon Survey MPS 272604
2009 01 20.50791 13 19 59.70 -07 00 40.5 21.9 V G96 – Mt. Lemmon Survey MPS 272604
2009 01 20.51370 13 19 59.84 -07 00 41.1 20.8 V G96 – Mt. Lemmon Survey MPS 272604
2009 01 20.51962 13 19 59.95 -07 00 42.3 20.8 V G96 – Mt. Lemmon Survey MPS 272604
2009 03 23.65290 13 07 53.62 -06 33 13.8 20.4 R D29 – Purple Mountain Observatory, XuYi Station MPS 281292
2009 03 23.66672 13 07 53.03 -06 33 12.0 20.1 R D29 – Purple Mountain Observatory, XuYi Station MPS 281292
2009 03 23.68053 13 07 52.40 -06 33 07.9 19.8 R D29 – Purple Mountain Observatory, XuYi Station MPS 281292
2009 03 23.69427 13 07 51.82 -06 33 05.4 19.7 R D29 – Purple Mountain Observatory, XuYi Station MPS 281292
2009 03 24.24963 13 07 29.05 -06 31 20.0 20.3 V 691 – Steward Observatory, Kitt Peak-Spacewatch MPS 281292
2009 03 24.26727 13 07 28.26 -06 31 16.6 20.1 V 691 – Steward Observatory, Kitt Peak-Spacewatch MPS 281292
